EN

Hourly Weather Koblenz

Today, 30 November, Monday

Time Temperature Precipitation Wind Pressure Humidity
00:00 -1°C° 0 mm 0 mps 764 mmHg 91%
01:00 -2°C° 0 mm 0 mps 764 mmHg 90%
02:00 -2°C° 0 mm 0 mps 764 mmHg 91%
03:00 -2°C° 0 mm 0 mps 764 mmHg 91%
04:00 -2°C° 0 mm 0 mps 764 mmHg 91%
05:00 -2°C° 0 mm 0 mps 764 mmHg 92%
06:00 -2°C° 0 mm 0 mps 764 mmHg 92%
07:00 -2°C° 0 mm 0 mps 764 mmHg 92%
08:00 -1°C° 0 mm 0 mps 764 mmHg 87%
09:00 +1°C° 0 mm 1 mps 764 mmHg 82%
10:00 +2°C° 0 mm 1 mps 764 mmHg 78%
11:00 +3°C° 0 mm 1 mps 764 mmHg 71%
12:00 +4°C° 0 mm 1 mps 763 mmHg 64%
13:00 +5°C° 0 mm 1 mps 763 mmHg 58%
14:00 +4°C° 0 mm 2 mps 762 mmHg 60%
15:00 +3°C° 0 mm 2 mps 762 mmHg 62%
16:00 +3°C° 0 mm 2 mps 761 mmHg 64%
17:00 +3°C° 0 mm 2 mps 760 mmHg 66%
18:00 +3°C° 0 mm 2 mps 760 mmHg 67%
19:00 +3°C° 0 mm 2 mps 759 mmHg 69%
20:00 +2°C° 1 mm 3 mps 759 mmHg 77%
21:00 +2°C° 1 mm 3 mps 758 mmHg 86%
22:00 +1°C° 1 mm 3 mps 758 mmHg 94%
23:00 +2°C° 0.5 mm 3 mps 757 mmHg 94%

Tomorrow, 1 December, Tuesday

Time Temperature Precipitation Wind Pressure Humidity
00:00 +2°C° 0.5 mm 3 mps 756 mmHg 94%
01:00 +3°C° 0.5 mm 4 mps 755 mmHg 93%
02:00 +3°C° 0.8 mm 4 mps 755 mmHg 94%
03:00 +3°C° 0.8 mm 4 mps 754 mmHg 95%
04:00 +3°C° 0.8 mm 4 mps 754 mmHg 95%
05:00 +3°C° 0.5 mm 3 mps 754 mmHg 96%
06:00 +4°C° 0.5 mm 2 mps 754 mmHg 96%
07:00 +4°C° 0.5 mm 2 mps 754 mmHg 97%
08:00 +5°C° 0.2 mm 1 mps 754 mmHg 97%
09:00 +5°C° 0.2 mm 1 mps 754 mmHg 97%
10:00 +5°C° 0.2 mm 1 mps 754 mmHg 97%
11:00 +6°C° 0.1 mm 1 mps 754 mmHg 95%
12:00 +6°C° 0.1 mm 1 mps 754 mmHg 94%
13:00 +6°C° 0.1 mm 0 mps 754 mmHg 93%
14:00 +5°C° 0 mm 0 mps 755 mmHg 93%
15:00 +5°C° 0 mm 0 mps 755 mmHg 94%
16:00 +5°C° 0 mm 0 mps 755 mmHg 95%
17:00 +5°C° 0 mm 0 mps 755 mmHg 95%
18:00 +5°C° 0 mm 0 mps 756 mmHg 96%
19:00 +6°C° 0 mm 1 mps 756 mmHg 96%
20:00 +4°C° 0 mm 0 mps 757 mmHg 96%
21:00 +4°C° 0 mm 0 mps 757 mmHg 96%
22:00 +4°C° 0 mm 0 mps 757 mmHg 96%
23:00 +4°C° 0 mm 0 mps 758 mmHg 97%

Day after tomorrow, 2 December, Wednesday

Time Temperature Precipitation Wind Pressure Humidity
00:00 +3°C° 0 mm 0 mps 758 mmHg 97%
01:00 +4°C° 0 mm 1 mps 758 mmHg 97%
02:00 +4°C° 0 mm 1 mps 758 mmHg 97%
03:00 +4°C° 0 mm 1 mps 758 mmHg 96%
04:00 +4°C° 0 mm 1 mps 758 mmHg 96%
05:00 +4°C° 0 mm 1 mps 758 mmHg 96%
06:00 +4°C° 0 mm 1 mps 757 mmHg 96%
07:00 +3°C° 0 mm 0 mps 757 mmHg 96%
08:00 +3°C° 0 mm 0 mps 757 mmHg 94%
09:00 +3°C° 0 mm 0 mps 757 mmHg 93%
10:00 +5°C° 0 mm 1 mps 757 mmHg 91%
11:00 +5°C° 0 mm 1 mps 757 mmHg 88%
12:00 +6°C° 0 mm 1 mps 756 mmHg 85%
13:00 +7°C° 0 mm 1 mps 756 mmHg 82%
14:00 +6°C° 0 mm 1 mps 755 mmHg 84%
15:00 +6°C° 0 mm 1 mps 755 mmHg 86%
16:00 +4°C° 0 mm 0 mps 755 mmHg 89%
17:00 +4°C° 0 mm 0 mps 754 mmHg 89%
18:00 +4°C° 0 mm 0 mps 754 mmHg 90%
19:00 +4°C° 0 mm 0 mps 754 mmHg 90%
20:00 +4°C° 0 mm 0 mps 754 mmHg 90%
21:00 +4°C° 0 mm 0 mps 754 mmHg 90%
22:00 +4°C° 0 mm 0 mps 754 mmHg 90%
23:00 +3°C° 0 mm 0 mps 753 mmHg 90%

3 December, Thursday

Time Temperature Precipitation Wind Pressure Humidity
00:00 +3°C° 0 mm 0 mps 753 mmHg 90%
01:00 +4°C° 0 mm 1 mps 753 mmHg 90%
02:00 +4°C° 0 mm 1 mps 752 mmHg 89%
03:00 +4°C° 0 mm 1 mps 752 mmHg 88%
04:00 +4°C° 0 mm 1 mps 751 mmHg 86%
05:00 +4°C° 0 mm 1 mps 751 mmHg 87%
06:00 +4°C° 0 mm 1 mps 751 mmHg 88%
07:00 +4°C° 0 mm 1 mps 750 mmHg 88%
08:00 +3°C° 0 mm 2 mps 750 mmHg 88%
09:00 +3°C° 0 mm 2 mps 750 mmHg 88%
10:00 +4°C° 0 mm 2 mps 749 mmHg 88%
11:00 +4°C° 0 mm 2 mps 749 mmHg 87%
12:00 +3°C° 0 mm 3 mps 748 mmHg 85%
13:00 +3°C° 0 mm 3 mps 747 mmHg 84%
14:00 +3°C° 0 mm 3 mps 747 mmHg 86%
15:00 +4°C° 0 mm 2 mps 746 mmHg 89%
16:00 +4°C° 0 mm 2 mps 745 mmHg 91%
17:00 +2°C° 0 mm 3 mps 745 mmHg 91%
18:00 +2°C° 0 mm 3 mps 744 mmHg 92%
19:00 +2°C° 0 mm 3 mps 744 mmHg 92%
20:00 +1°C° 0 mm 3 mps 743 mmHg 91%
21:00 +1°C° 0 mm 3 mps 743 mmHg 89%
22:00 +1°C° 0 mm 3 mps 742 mmHg 88%
23:00 +1°C° 0 mm 3 mps 741 mmHg 87%

4 December, Friday

Time Temperature Precipitation Wind Pressure Humidity
00:00 0°C° 0 mm 3 mps 741 mmHg 85%
01:00 0°C° 0 mm 3 mps 740 mmHg 84%
02:00 0°C° 0 mm 3 mps 739 mmHg 85%
03:00 0°C° 0 mm 3 mps 738 mmHg 86%
04:00 0°C° 0 mm 3 mps 738 mmHg 86%
05:00 0°C° 0 mm 3 mps 737 mmHg 87%
06:00 0°C° 0 mm 3 mps 737 mmHg 87%
07:00 0°C° 0 mm 3 mps 736 mmHg 88%
08:00 0°C° 0 mm 3 mps 736 mmHg 86%
09:00 +1°C° 0 mm 3 mps 736 mmHg 85%
10:00 0°C° 0 mm 4 mps 736 mmHg 84%
11:00 +1°C° 0.1 mm 4 mps 735 mmHg 83%
12:00 +3°C° 0.1 mm 4 mps 735 mmHg 82%
13:00 +4°C° 0.1 mm 4 mps 735 mmHg 81%
14:00 +3°C° 0 mm 3 mps 734 mmHg 82%
15:00 +3°C° 0 mm 3 mps 734 mmHg 83%
16:00 +3°C° 0 mm 3 mps 734 mmHg 84%
17:00 +3°C° 0 mm 3 mps 734 mmHg 86%
18:00 +2°C° 0 mm 3 mps 734 mmHg 88%
19:00 +1°C° 0 mm 4 mps 734 mmHg 90%
20:00 +1°C° 0 mm 4 mps 734 mmHg 90%
21:00 +1°C° 0 mm 4 mps 734 mmHg 90%
22:00 +1°C° 0 mm 4 mps 734 mmHg 90%
23:00 +2°C° 0 mm 3 mps 734 mmHg 91%

5 December, Saturday

Time Temperature Precipitation Wind Pressure Humidity
00:00 +2°C° 0 mm 2 mps 735 mmHg 92%
01:00 +2°C° 0 mm 2 mps 735 mmHg 93%
02:00 +1°C° 0 mm 2 mps 735 mmHg 93%
03:00 +2°C° 0 mm 1 mps 735 mmHg 93%
04:00 +2°C° 0 mm 1 mps 736 mmHg 93%
05:00 +2°C° 0 mm 1 mps 736 mmHg 93%
06:00 +2°C° 0 mm 1 mps 736 mmHg 94%
07:00 +1°C° 0 mm 1 mps 736 mmHg 94%
08:00 +2°C° 0 mm 1 mps 736 mmHg 92%
09:00 +2°C° 0 mm 1 mps 737 mmHg 89%
10:00 +3°C° 0 mm 1 mps 737 mmHg 87%
11:00 +4°C° 0 mm 1 mps 737 mmHg 83%
12:00 +3°C° 0 mm 2 mps 737 mmHg 79%
13:00 +4°C° 0 mm 2 mps 737 mmHg 75%
14:00 +4°C° 0 mm 2 mps 737 mmHg 77%
15:00 +3°C° 0 mm 2 mps 737 mmHg 80%
16:00 +3°C° 0 mm 2 mps 737 mmHg 82%
17:00 +2°C° 0 mm 2 mps 738 mmHg 84%
18:00 +2°C° 0 mm 2 mps 738 mmHg 87%
19:00 +1°C° 0 mm 2 mps 738 mmHg 89%
20:00 +2°C° 0 mm 2 mps 738 mmHg 89%
21:00 +2°C° 0 mm 2 mps 738 mmHg 89%
22:00 +2°C° 0 mm 2 mps 738 mmHg 89%
23:00 +2°C° 0 mm 2 mps 738 mmHg 89%
Show more

We Need Your Consent

Meteoprog and our Service Providers may store and access personal data such as cookies, device identifiers or other similar technologies on your device and process such data to personalise content and ads, as well as provide social media features and to analyse the traffic.

  • Store and/or access information on your device

    Cookies, device identifiers or other information can be stored or accessed on your device for the purposes indicated above.

  • Personalised ads and content, ad and content measurement, audience insights, and products development

    Ads and content can be personalised based on a profile. More data can be added to better personalise ads and content. Ad and content performance can be measured. Insights about the audience who saw the ads and content can be derived. Such data can be used to develop or improve user’s experience, systems and software.

By clicking ‘I Agree’ you will allow the use of indicated cookies, device identifiers, web beacons or other similar technologies. Your settings can be changed in the browser on your device.

For certain purposes, legitimate interests may be relied on, rather than consent. You can read more about this in our Privacy and Cookie Policy.